Flag for Germany Weather past 2 weeks in Hannover, Lower Saxony, Germany

Now
41 °F

Fog.


Feels Like: 36 °F
Forecast: 42 / 59 °F
Wind: 8 mph from West

Location: Hannover

Current Time: Apr 21, 2015 at 7:48:15 AM

Latest Report: Apr 21, 2015 at 7:20 AM


Visibility: 3 mi

Pressure: 30.39 "Hg

Humidity: 93%

Dew point: 39 °F

Location of HannoverLocation

Historic Weather in Hannover — Graph

°F

Hannover temperature yesterday

Maximum temperature yesterday: 66 °F (at 3:20 PM)
Minimum temperature yesterday: 34 °F (at 6:20 AM)
Average temperature yesterday: 52 °F

Past Weeks' High & Low Weather Summary

 TemperatureHumidityPressure
High72 °F (Apr 15, 3:20 PM)100% (Apr 8, 11:50 PM)30.57 "Hg (Apr 8, 11:50 PM)
Low28 °F (Apr 7, 4:50 AM)32% (Apr 6, 2:50 PM)29.89 "Hg (Apr 15, 4:50 PM)
Average49 °F68%30.24 "Hg
* Reported Apr 6 6:20 AM — Apr 21 6:50 AM, Hannover, Weather by CustomWeather, © 2015

Note: Actual official high and low records may vary slightly from our data, if they occured in-between our weather recording intervals... More about our weather records

Advertising

Hannover weather history for previous 24 hours

 ConditionsComfort  
Time TempWeatherWind HumidityBarometerVisibility
6:50 AM
Tue, Apr 21
39 °FFog.8 mph100%30.36 "Hg3 mi
6:20 AM37 °FChilly.7 mph100%30.36 "Hg3 mi
5:50 AM37 °FFog.6 mph100%30.36 "Hg0 mi
5:20 AM37 °FChilly.5 mph100%30.36 "Hg1 mi
4:50 AM39 °FChilly.3 mph100%30.36 "Hg5 mi
4:20 AM39 °FChilly.5 mph100%30.39 "Hg5 mi
3:50 AM39 °FChilly.5 mph93%30.39 "Hg5 mi
3:20 AM41 °FQuite cool.6 mph100%30.36 "HgN/A
2:50 AM41 °FLight fog.8 mph93%30.36 "HgN/A
2:20 AM41 °FLight fog.5 mph100%30.36 "HgN/A
1:50 AM41 °FLight fog.3 mph93%30.36 "HgN/A
1:20 AM45 °FClear.2 mph93%30.36 "Hg10 mi
12:50 AM45 °FClear.2 mph93%30.36 "Hg10 mi
12:20 AM46 °FClear.6 mph87%30.36 "Hg10 mi
11:50 PM
Mon, Apr 20
46 °FClear.5 mph82%30.36 "Hg10 mi
11:20 PM48 °FClear.7 mph82%30.36 "Hg10 mi
10:50 PM50 °FClear.6 mph76%30.36 "Hg10 mi
10:20 PM54 °FClear.6 mph67%30.36 "Hg10 mi
9:50 PM54 °FPassing clouds.7 mph63%30.33 "HgN/A
9:20 PM55 °FSunny.6 mph44%30.33 "Hg10 mi
8:50 PM57 °FSunny.7 mph44%30.33 "Hg10 mi
8:20 PM59 °FSunny.6 mph45%30.30 "Hg10 mi
7:50 PM63 °FSunny.9 mph39%30.30 "Hg10 mi
7:20 PM64 °FSunny.9 mph34%30.30 "Hg10 mi
6:50 PM64 °FSunny.12 mph34%30.30 "Hg10 mi
6:20 PM66 °FPassing clouds.13 mph35%30.30 "HgN/A
5:50 PM66 °FPassing clouds.12 mph35%30.30 "HgN/A
5:20 PM66 °FPassing clouds.13 mph32%30.30 "HgN/A
4:50 PM66 °FPassing clouds.12 mph32%30.30 "HgN/A
4:20 PM66 °FPassing clouds.13 mph32%30.30 "HgN/A
3:50 PM64 °FPassing clouds.15 mph34%30.30 "HgN/A
3:20 PM66 °FPassing clouds.13 mph37%30.30 "HgN/A
2:50 PM64 °FPassing clouds.16 mph40%30.30 "HgN/A
2:20 PM64 °FPassing clouds.14 mph43%30.33 "HgN/A
1:50 PM63 °FPassing clouds.14 mph45%30.33 "HgN/A
1:20 PM61 °FPassing clouds.13 mph45%30.33 "HgN/A
12:50 PM61 °FPassing clouds.13 mph42%30.33 "HgN/A
12:20 PM59 °FPassing clouds.8 mph48%30.33 "HgN/A
11:50 AM59 °FPassing clouds.10 mph48%30.33 "HgN/A
11:20 AM57 °FPassing clouds.12 mph51%30.33 "HgN/A
10:50 AM55 °FPassing clouds.9 mph55%30.33 "HgN/A
10:20 AM54 °FPassing clouds.9 mph58%30.33 "HgN/A
9:50 AM52 °FPassing clouds.6 mph67%30.33 "HgN/A
9:20 AM50 °FPassing clouds.6 mph71%30.33 "HgN/A
8:50 AM46 °FPassing clouds.5 mph76%30.33 "HgN/A
8:20 AM43 °FSunny.3 mph81%30.33 "Hg10 mi
7:50 AM41 °FSunny.5 mph81%30.30 "Hg10 mi
7:20 AM36 °FSunny.5 mph93%30.30 "Hg10 mi
Weather by CustomWeather, © 2015

See weather overviewHow to use our weather pages